Time,TemperatureF,DewpointF,PressureIn,WindDirection,WindDirectionDegrees,WindSpeedMPH,WindSpeedGustMPH,Humidity,HourlyPrecipIn,Conditions,Clouds,dailyrainin,SoftwareType,DateUTC
2013-04-30 00:01:00,41.0,25.0,-100.00,North,-999,-999.0,-999.0,52,-99.99,,,-99.99,,2013-04-30 06:01:00,
2013-04-30 00:11:00,41.0,25.0,-100.00,North,-999,-999.0,-999.0,52,-99.99,,,-99.99,,2013-04-30 06:11:00,
2013-04-30 00:21:00,41.0,25.0,-100.00,North,-999,-999.0,-999.0,52,-99.99,,,-99.99,,2013-04-30 06:21:00,
2013-04-30 00:42:00,39.0,26.0,-100.00,North,-999,-999.0,-999.0,59,-99.99,,,-99.99,,2013-04-30 06:42:00,
2013-04-30 00:52:00,39.0,26.0,-100.00,North,-999,-999.0,-999.0,59,-99.99,,,-99.99,,2013-04-30 06:52:00,
2013-04-30 01:01:00,39.0,26.0,-100.00,North,-999,-999.0,-999.0,59,-99.99,,,-99.99,,2013-04-30 07:01:00,
2013-04-30 01:11:00,39.0,27.0,-100.00,North,-999,-999.0,-999.0,60,-99.99,,,-99.99,,2013-04-30 07:11:00,
2013-04-30 01:21:00,39.0,27.0,-100.00,North,-999,-999.0,-999.0,60,-99.99,,,-99.99,,2013-04-30 07:21:00,
2013-04-30 01:31:00,39.0,27.0,-100.00,North,-999,-999.0,-999.0,60,-99.99,,,-99.99,,2013-04-30 07:31:00,
2013-04-30 01:41:00,38.0,26.0,-100.00,North,-999,-999.0,-999.0,61,-99.99,,,-99.99,,2013-04-30 07:41:00,
2013-04-30 01:52:00,38.0,26.0,-100.00,North,-999,-999.0,-999.0,61,-99.99,,,-99.99,,2013-04-30 07:52:00,
2013-04-30 02:02:00,38.0,26.0,-100.00,North,-999,-999.0,-999.0,64,-99.99,,,-99.99,,2013-04-30 08:02:00,
2013-04-30 02:11:00,37.0,26.0,-100.00,North,-999,-999.0,-999.0,64,-99.99,,,-99.99,,2013-04-30 08:11:00,
2013-04-30 02:21:00,37.0,26.0,-100.00,North,-999,-999.0,-999.0,64,-99.99,,,-99.99,,2013-04-30 08:21:00,
2013-04-30 02:30:00,36.0,25.0,-100.00,North,-999,-999.0,-999.0,63,-99.99,,,-99.99,,2013-04-30 08:30:00,
2013-04-30 02:32:00,37.0,26.0,-100.00,North,-999,-999.0,-999.0,64,-99.99,,,-99.99,,2013-04-30 08:32:00,
2013-04-30 02:41:00,37.0,25.0,-100.00,North,-999,-999.0,-999.0,63,-99.99,,,-99.99,,2013-04-30 08:41:00,
2013-04-30 02:52:00,37.0,25.0,-100.00,North,-999,-999.0,-999.0,63,-99.99,,,-99.99,,2013-04-30 08:52:00,
2013-04-30 03:01:00,36.0,25.0,-100.00,North,-999,-999.0,-999.0,63,-99.99,,,-99.99,,2013-04-30 09:01:00,
2013-04-30 03:11:00,36.0,25.0,-100.00,North,-999,-999.0,-999.0,63,-99.99,,,-99.99,,2013-04-30 09:11:00,
2013-04-30 03:22:00,36.0,25.0,-100.00,North,-999,-999.0,-999.0,63,-99.99,,,-99.99,,2013-04-30 09:22:00,
2013-04-30 03:30:00,34.0,25.0,-100.00,North,-999,-999.0,-999.0,68,-99.99,,,-99.99,,2013-04-30 09:30:00,
2013-04-30 04:03:00,34.0,25.0,-100.00,North,-999,-999.0,-999.0,68,-99.99,,,-99.99,,2013-04-30 10:03:00,
2013-04-30 04:11:00,34.0,25.0,-100.00,North,-999,-999.0,-999.0,68,-99.99,,,-99.99,,2013-04-30 10:11:00,
2013-04-30 04:22:00,34.0,25.0,-100.00,North,-999,-999.0,-999.0,68,-99.99,,,-99.99,,2013-04-30 10:22:00,
2013-04-30 04:30:00,33.0,24.0,-100.00,North,-999,-999.0,-999.0,67,-99.99,,,-99.99,,2013-04-30 10:30:00,
2013-04-30 04:41:00,34.0,24.0,-100.00,North,-999,-999.0,-999.0,65,-99.99,,,-99.99,,2013-04-30 10:41:00,
2013-04-30 04:52:00,34.0,24.0,-100.00,North,-999,-999.0,-999.0,65,-99.99,,,-99.99,,2013-04-30 10:52:00,
2013-04-30 05:01:00,33.0,24.0,-100.00,North,-999,-999.0,-999.0,67,-99.99,,,-99.99,,2013-04-30 11:01:00,
2013-04-30 05:11:00,33.0,24.0,-100.00,North,-999,-999.0,-999.0,67,-99.99,,,-99.99,,2013-04-30 11:11:00,
2013-04-30 05:21:00,33.0,24.0,-100.00,North,-999,-999.0,-999.0,67,-99.99,,,-99.99,,2013-04-30 11:21:00,
2013-04-30 05:42:00,33.0,23.0,-100.00,North,-999,-999.0,-999.0,67,-99.99,,,-99.99,,2013-04-30 11:42:00,
2013-04-30 05:51:00,33.0,23.0,-100.00,North,-999,-999.0,-999.0,67,-99.99,,,-99.99,,2013-04-30 11:51:00,
2013-04-30 06:01:00,33.0,23.0,-100.00,North,-999,-999.0,-999.0,67,-99.99,,,-99.99,,2013-04-30 12:01:00,
2013-04-30 06:11:00,33.0,23.0,-100.00,North,-999,-999.0,-999.0,67,-99.99,,,-99.99,,2013-04-30 12:11:00,
2013-04-30 07:41:00,32.0,23.0,-100.00,North,-999,-999.0,-999.0,69,-99.99,,,-99.99,,2013-04-30 13:41:00,
2013-04-30 07:52:00,32.0,23.0,-100.00,North,-999,-999.0,-999.0,69,-99.99,,,-99.99,,2013-04-30 13:52:00,
2013-04-30 08:02:00,32.0,23.0,-100.00,North,-999,-999.0,-999.0,69,-99.99,,,-99.99,,2013-04-30 14:02:00,
2013-04-30 08:11:00,32.0,23.0,-100.00,North,-999,-999.0,-999.0,69,-99.99,,,-99.99,,2013-04-30 14:11:00,
2013-04-30 10:02:00,33.0,18.0,-100.00,North,-999,-999.0,-999.0,53,-99.99,,,-99.99,,2013-04-30 16:02:00,
2013-04-30 10:12:00,33.0,18.0,-100.00,North,-999,-999.0,-999.0,54,-99.99,,,-99.99,,2013-04-30 16:12:00,
2013-04-30 10:22:00,33.0,18.0,-100.00,North,-999,-999.0,-999.0,54,-99.99,,,-99.99,,2013-04-30 16:22:00,
2013-04-30 10:32:00,33.0,18.0,-100.00,North,-999,-999.0,-999.0,54,-99.99,,,-99.99,,2013-04-30 16:32:00,
2013-04-30 10:42:00,35.0,17.0,-100.00,North,-999,-999.0,-999.0,48,-99.99,,,-99.99,,2013-04-30 16:42:00,
2013-04-30 10:52:00,35.0,17.0,-100.00,North,-999,-999.0,-999.0,48,-99.99,,,-99.99,,2013-04-30 16:52:00,
2013-04-30 11:02:00,36.0,17.0,-100.00,North,-999,-999.0,-999.0,44,-99.99,,,-99.99,,2013-04-30 17:02:00,
2013-04-30 11:12:00,38.0,17.0,-100.00,North,-999,-999.0,-999.0,43,-99.99,,,-99.99,,2013-04-30 17:12:00,
2013-04-30 11:22:00,38.0,17.0,-100.00,North,-999,-999.0,-999.0,43,-99.99,,,-99.99,,2013-04-30 17:22:00,
2013-04-30 11:32:00,38.0,17.0,-100.00,North,-999,-999.0,-999.0,43,-99.99,,,-99.99,,2013-04-30 17:32:00,
2013-04-30 11:42:00,39.0,17.0,-100.00,North,-999,-999.0,-999.0,40,-99.99,,,-99.99,,2013-04-30 17:42:00,
2013-04-30 11:52:00,39.0,17.0,-100.00,North,-999,-999.0,-999.0,40,-99.99,,,-99.99,,2013-04-30 17:52:00,
2013-04-30 12:01:00,39.0,16.0,-100.00,North,-999,-999.0,-999.0,39,-99.99,,,-99.99,,2013-04-30 18:01:00,
2013-04-30 12:11:00,39.0,15.0,-100.00,North,-999,-999.0,-999.0,37,-99.99,,,-99.99,,2013-04-30 18:11:00,
2013-04-30 12:22:00,39.0,15.0,-100.00,North,-999,-999.0,-999.0,37,-99.99,,,-99.99,,2013-04-30 18:22:00,
2013-04-30 12:32:00,39.0,15.0,-100.00,North,-999,-999.0,-999.0,37,-99.99,,,-99.99,,2013-04-30 18:32:00,
2013-04-30 12:41:00,39.0,15.0,-100.00,North,-999,-999.0,-999.0,37,-99.99,,,-99.99,,2013-04-30 18:41:00,
2013-04-30 12:52:00,39.0,15.0,-100.00,North,-999,-999.0,-999.0,37,-99.99,,,-99.99,,2013-04-30 18:52:00,
2013-04-30 13:01:00,38.0,15.0,-100.00,North,-999,-999.0,-999.0,37,-99.99,,,-99.99,,2013-04-30 19:01:00,
2013-04-30 13:11:00,37.0,16.0,-100.00,North,-999,-999.0,-999.0,41,-99.99,,,-99.99,,2013-04-30 19:11:00,
2013-04-30 13:21:00,37.0,16.0,-100.00,North,-999,-999.0,-999.0,41,-99.99,,,-99.99,,2013-04-30 19:21:00,
2013-04-30 13:31:00,37.0,16.0,-100.00,North,-999,-999.0,-999.0,41,-99.99,,,-99.99,,2013-04-30 19:31:00,
2013-04-30 13:41:00,38.0,17.0,-100.00,North,-999,-999.0,-999.0,42,-99.99,,,-99.99,,2013-04-30 19:41:00,
2013-04-30 13:52:00,38.0,17.0,-100.00,North,-999,-999.0,-999.0,42,-99.99,,,-99.99,,2013-04-30 19:52:00,
2013-04-30 14:02:00,38.0,17.0,-100.00,North,-999,-999.0,-999.0,42,-99.99,,,-99.99,,2013-04-30 20:02:00,
2013-04-30 14:11:00,39.0,19.0,-100.00,North,-999,-999.0,-999.0,43,-99.99,,,-99.99,,2013-04-30 20:11:00,
2013-04-30 14:21:00,39.0,19.0,-100.00,North,-999,-999.0,-999.0,43,-99.99,,,-99.99,,2013-04-30 20:21:00,
2013-04-30 14:32:00,39.0,19.0,-100.00,North,-999,-999.0,-999.0,43,-99.99,,,-99.99,,2013-04-30 20:32:00,
2013-04-30 14:42:00,38.0,17.0,-100.00,North,-999,-999.0,-999.0,42,-99.99,,,-99.99,,2013-04-30 20:42:00,
2013-04-30 14:52:00,38.0,17.0,-100.00,North,-999,-999.0,-999.0,42,-99.99,,,-99.99,,2013-04-30 20:52:00,
2013-04-30 15:01:00,38.0,17.0,-100.00,North,-999,-999.0,-999.0,42,-99.99,,,-99.99,,2013-04-30 21:01:00,
2013-04-30 15:11:00,39.0,18.0,-100.00,North,-999,-999.0,-999.0,42,-99.99,,,-99.99,,2013-04-30 21:11:00,
2013-04-30 15:22:00,39.0,18.0,-100.00,North,-999,-999.0,-999.0,42,-99.99,,,-99.99,,2013-04-30 21:22:00,
2013-04-30 15:30:00,38.0,16.0,-100.00,North,-999,-999.0,-999.0,40,-99.99,,,-99.99,,2013-04-30 21:30:00,
2013-04-30 15:32:00,39.0,18.0,-100.00,North,-999,-999.0,-999.0,42,-99.99,,,-99.99,,2013-04-30 21:32:00,
2013-04-30 15:42:00,38.0,17.0,-100.00,North,-999,-999.0,-999.0,41,-99.99,,,-99.99,,2013-04-30 21:42:00,
2013-04-30 15:53:00,38.0,17.0,-100.00,North,-999,-999.0,-999.0,41,-99.99,,,-99.99,,2013-04-30 21:53:00,
2013-04-30 16:02:00,38.0,16.0,-100.00,North,-999,-999.0,-999.0,40,-99.99,,,-99.99,,2013-04-30 22:02:00,
2013-04-30 16:12:00,38.0,16.0,-100.00,North,-999,-999.0,-999.0,40,-99.99,,,-99.99,,2013-04-30 22:12:00,
2013-04-30 16:22:00,38.0,16.0,-100.00,North,-999,-999.0,-999.0,40,-99.99,,,-99.99,,2013-04-30 22:22:00,
2013-04-30 16:42:00,38.0,15.0,-100.00,North,-999,-999.0,-999.0,38,-99.99,,,-99.99,,2013-04-30 22:42:00,
2013-04-30 16:53:00,38.0,15.0,-100.00,North,-999,-999.0,-999.0,38,-99.99,,,-99.99,,2013-04-30 22:53:00,
2013-04-30 17:02:00,37.0,15.0,-100.00,North,-999,-999.0,-999.0,39,-99.99,,,-99.99,,2013-04-30 23:02:00,
2013-04-30 17:11:00,36.0,14.0,-100.00,North,-999,-999.0,-999.0,38,-99.99,,,-99.99,,2013-04-30 23:11:00,
2013-04-30 17:21:00,36.0,14.0,-100.00,North,-999,-999.0,-999.0,38,-99.99,,,-99.99,,2013-04-30 23:21:00,
2013-04-30 17:32:00,36.0,14.0,-100.00,North,-999,-999.0,-999.0,38,-99.99,,,-99.99,,2013-04-30 23:32:00,
2013-04-30 17:42:00,36.0,10.0,-100.00,North,-999,-999.0,-999.0,34,-99.99,,,-99.99,,2013-04-30 23:42:00,
2013-04-30 17:52:00,36.0,10.0,-100.00,North,-999,-999.0,-999.0,34,-99.99,,,-99.99,,2013-04-30 23:52:00,
2013-04-30 18:01:00,35.0,10.0,-100.00,North,-999,-999.0,-999.0,34,-99.99,,,-99.99,,2013-05-01 00:01:00,
2013-04-30 18:11:00,34.0,10.0,-100.00,North,-999,-999.0,-999.0,35,-99.99,,,-99.99,,2013-05-01 00:11:00,
2013-04-30 18:21:00,34.0,10.0,-100.00,North,-999,-999.0,-999.0,35,-99.99,,,-99.99,,2013-05-01 00:21:00,
2013-04-30 18:31:00,34.0,10.0,-100.00,North,-999,-999.0,-999.0,35,-99.99,,,-99.99,,2013-05-01 00:31:00,
2013-04-30 18:42:00,33.0,9.0,-100.00,North,-999,-999.0,-999.0,35,-99.99,,,-99.99,,2013-05-01 00:42:00,
2013-04-30 18:52:00,34.0,9.0,-100.00,North,-999,-999.0,-999.0,35,-99.99,,,-99.99,,2013-05-01 00:52:00,
2013-04-30 19:01:00,34.0,9.0,-100.00,North,-999,-999.0,-999.0,35,-99.99,,,-99.99,,2013-05-01 01:01:00,
2013-04-30 19:11:00,33.0,9.0,-100.00,North,-999,-999.0,-999.0,36,-99.99,,,-99.99,,2013-05-01 01:11:00,
2013-04-30 19:21:00,33.0,9.0,-100.00,North,-999,-999.0,-999.0,36,-99.99,,,-99.99,,2013-05-01 01:21:00,
2013-04-30 19:31:00,33.0,9.0,-100.00,North,-999,-999.0,-999.0,36,-99.99,,,-99.99,,2013-05-01 01:31:00,
2013-04-30 19:41:00,32.0,7.0,-100.00,North,-999,-999.0,-999.0,34,-99.99,,,-99.99,,2013-05-01 01:41:00,
2013-04-30 19:52:00,32.0,7.0,-100.00,North,-999,-999.0,-999.0,34,-99.99,,,-99.99,,2013-05-01 01:52:00,
2013-04-30 20:02:00,31.0,7.0,-100.00,North,-999,-999.0,-999.0,35,-99.99,,,-99.99,,2013-05-01 02:02:00,
2013-04-30 20:11:00,30.0,7.0,-100.00,North,-999,-999.0,-999.0,37,-99.99,,,-99.99,,2013-05-01 02:11:00,
2013-04-30 20:21:00,30.0,7.0,-100.00,North,-999,-999.0,-999.0,37,-99.99,,,-99.99,,2013-05-01 02:21:00,
2013-04-30 20:32:00,30.0,7.0,-100.00,North,-999,-999.0,-999.0,37,-99.99,,,-99.99,,2013-05-01 02:32:00,
2013-04-30 20:42:00,28.0,7.0,-100.00,North,-999,-999.0,-999.0,41,-99.99,,,-99.99,,2013-05-01 02:42:00,
2013-04-30 20:52:00,28.0,7.0,-100.00,North,-999,-999.0,-999.0,41,-99.99,,,-99.99,,2013-05-01 02:52:00,
2013-04-30 21:01:00,27.0,7.0,-100.00,North,-999,-999.0,-999.0,42,-99.99,,,-99.99,,2013-05-01 03:01:00,
2013-04-30 21:11:00,27.0,7.0,-100.00,North,-999,-999.0,-999.0,42,-99.99,,,-99.99,,2013-05-01 03:11:00,
2013-04-30 21:21:00,27.0,7.0,-100.00,North,-999,-999.0,-999.0,42,-99.99,,,-99.99,,2013-05-01 03:21:00,
2013-04-30 21:32:00,27.0,7.0,-100.00,North,-999,-999.0,-999.0,42,-99.99,,,-99.99,,2013-05-01 03:32:00,
2013-04-30 21:42:00,26.0,7.0,-100.00,North,-999,-999.0,-999.0,43,-99.99,,,-99.99,,2013-05-01 03:42:00,
2013-04-30 21:53:00,26.0,7.0,-100.00,North,-999,-999.0,-999.0,43,-99.99,,,-99.99,,2013-05-01 03:53:00,
2013-04-30 22:03:00,26.0,6.0,-100.00,North,-999,-999.0,-999.0,42,-99.99,,,-99.99,,2013-05-01 04:03:00,
2013-04-30 22:12:00,25.0,6.0,-100.00,North,-999,-999.0,-999.0,43,-99.99,,,-99.99,,2013-05-01 04:12:00,
2013-04-30 22:22:00,25.0,6.0,-100.00,North,-999,-999.0,-999.0,43,-99.99,,,-99.99,,2013-05-01 04:22:00,
2013-04-30 22:32:00,25.0,6.0,-100.00,North,-999,-999.0,-999.0,43,-99.99,,,-99.99,,2013-05-01 04:32:00,
2013-04-30 22:42:00,25.0,5.0,-100.00,North,-999,-999.0,-999.0,42,-99.99,,,-99.99,,2013-05-01 04:42:00,
2013-04-30 22:52:00,25.0,5.0,-100.00,North,-999,-999.0,-999.0,42,-99.99,,,-99.99,,2013-05-01 04:52:00,
2013-04-30 23:02:00,24.0,4.0,-100.00,North,-999,-999.0,-999.0,42,-99.99,,,-99.99,,2013-05-01 05:02:00,
2013-04-30 23:11:00,24.0,4.0,-100.00,North,-999,-999.0,-999.0,42,-99.99,,,-99.99,,2013-05-01 05:11:00,
2013-04-30 23:21:00,24.0,4.0,-100.00,North,-999,-999.0,-999.0,42,-99.99,,,-99.99,,2013-05-01 05:21:00,
2013-04-30 23:32:00,24.0,4.0,-100.00,North,-999,-999.0,-999.0,42,-99.99,,,-99.99,,2013-05-01 05:32:00,
2013-04-30 23:41:00,22.0,1.0,-100.00,North,-999,-999.0,-999.0,40,-99.99,,,-99.99,,2013-05-01 05:41:00,
2013-04-30 23:52:00,22.0,1.0,-100.00,North,-999,-999.0,-999.0,40,-99.99,,,-99.99,,2013-05-01 05:52:00,